[[{"header":{"parameterUnit":"m.s-1","parameterCategory":2,"la1":30.2991,"la2":30.254,"lo1":-89.0895,"lo2":-89.0444,"dy":0.0017,"dx":0.0017,"nx":28,"ny":28,"refTime":"2023-08-19T09:00:00:Z","depth":"0","parameterNumber":2,"parameterNumberName":"U-component_of_CURRENTS"},"data":[0,0,0,0,0,0,0,0,0,0,0,0,0,0,0,0,0,0,0,0,0,0,0,0,0,0,0,0,0,0,0,0,0,0,0,0,0,0,0,0,0,0,0,0,0,0,0,0,0,0,0,0,0,0,0,0,0,0,0.1945,0.1945,0,0.189,0.189,0.1889,0.1874,0.1875,0.1875,0.1876,0.1884,0.1883,0.1883,0,0,0,0,0,0,0,0,0,0,0,0,0,0.2057,0.2055,0.1945,0.1945,0.1944,0.1891,0.189,0.1889,0.1874,0.1875,0.1876,0.1876,0.1884,0.1884,0.1883,0,0,0,0,0,0,0,0,0,0,0,0,0,0.2004,0.2054,0.1945,0.1932,0.1931,0.1891,0.189,0.1888,0.1874,0.1875,0.1876,0.1876,0.1884,0.1884,0.1883,0.1864,0,0,0.1882,0.1882,0,0,0,0,0,0,0,0,0.2007,0.1999,0.1935,0.1933,0.1931,0.1892,0.1932,0.1884,0.1874,0.1893,0.1876,0.1877,0.1893,0.1892,0.1876,0.1865,0.1865,0.1882,0.1881,0.1881,0.1881,0,0,0,0,0,0,0,0.201,0.2002,0.1921,0.1934,0.1932,0.1936,0.1929,0.1922,0.1889,0.1892,0.1891,0.1888,0.1893,0.1876,0.1876,0.1865,0.1882,0.1881,0.1881,0.1881,0.1875,0.1876,0,0,0,0,0,0,0.2019,0.2005,0.1923,0.192,0.1974,0.1933,0.1925,0.1902,0.1887,0.1886,0.1888,0.1888,0.1877,0.1877,0.1877,0.1882,0.1881,0.1881,0.1881,0.1875,0.1875,0.1876,0,0,0,0,0,0,0.2021,0.2011,0.1925,0.1965,0.1954,0.1931,0.1905,0.19,0.1891,0.1884,0.1884,0.1884,0.1877,0.1877,0.1872,0.1882,0.1881,0.188,0.1875,0.1875,0.1876,0.1876,0,0,0,0,0,0,0.2024,0.2012,0.1997,0.1964,0.1952,0.1906,0.1904,0.1899,0.1889,0.1888,0.188,0.1881,0.1878,0.1872,0.1871,0.1881,0.188,0.1875,0.1875,0.1875,0.1875,0.1876,0.1876,0,0,0,0,0,0.2028,0.2001,0.1996,0.1987,0.1932,0.1906,0.19,0.1886,0.1888,0.188,0.1874,0.1882,0.1874,0.1871,0.187,0.188,0.1875,0.1875,0.1875,0.1875,0.1876,0.1876,0,0,0,0,0,0,0.2039,0.1996,0.199,0.195,0.1935,0.1905,0.1891,0.1888,0.1874,0.1874,0.1874,0.1873,0.1875,0.1875,0.1873,0.188,0.1879,0.1879,0.188,0.188,0.188,0.1874,0.188,0,0,0,0,0,0.2036,0.2003,0.1976,0.1946,0.1937,0.1917,0.1905,0.1897,0.1882,0.1876,0.1872,0.1871,0.1872,0.1874,0.187,0.1868,0.1875,0.1878,0.1878,0.1878,0.1873,0.1891,0.1892,0.1876,0.1876,0.1876,0,0,0.2031,0.2005,0.1985,0.1947,0.1929,0.1908,0.191,0.189,0.1879,0.188,0.1863,0.1869,0.1871,0.1869,0.1871,0.1872,0.1886,0.1879,0.1879,0.1873,0.1891,0.1893,0.1894,0.1877,0.1877,0.1877,0,0,0.2007,0.1982,0.1951,0.1937,0.1914,0.1903,0.1901,0.1876,0.1873,0.1858,0.1863,0.1871,0.1863,0.187,0.1873,0.1872,0.1885,0.1879,0.1877,0.1895,0.1897,0.1898,0.1909,0.1911,0.1882,0.1882,0.1882,0,0.2007,0.196,0.1942,0.1915,0.1904,0.1902,0.188,0.1871,0.1852,0.1853,0.1856,0.1858,0.1863,0.1872,0.1872,0.1874,0.1883,0.1876,0.1896,0.1897,0.1899,0.1909,0.1912,0.1882,0.1882,0.1882,0.1882,0,0.196,0.1932,0.1914,0.1878,0.1867,0.1847,0.184,0.1836,0.1838,0.1835,0.1844,0.1849,0.1855,0.1865,0.1866,0.1884,0.1886,0.1893,0.1895,0.19,0.1911,0.1914,0.1882,0.1882,0.1882,0.1882,0,0,0.1922,0.189,0.188,0.1872,0.1848,0.1834,0.1824,0.1817,0.1819,0.1818,0.1824,0.1833,0.1848,0.1852,0.1867,0.1884,0.1904,0.1892,0.1893,0.1902,0.194,0.1963,0.1968,0.1916,0.1916,0.1917,0.1944,0,0.189,0.185,0.1837,0.1807,0.1789,0.1795,0.1787,0.1787,0.1795,0.1802,0.1824,0.1831,0.184,0.1852,0.1869,0.1894,0.1911,0.1896,0.1933,0.1934,0.1954,0.1972,0.202,0.2051,0.1946,0.1947,0.1947,0,0.1833,0.1821,0.1788,0.1784,0.1776,0.1764,0.1767,0.1762,0.1778,0.1787,0.1805,0.182,0.1844,0.1854,0.1895,0.1886,0.1909,0.1929,0.1931,0.1953,0.1962,0.2028,0.2059,0.2091,0.1951,0.1951,0.1951,0,0.1802,0.1779,0.176,0.1753,0.1747,0.1745,0.1749,0.1758,0.1762,0.1782,0.1792,0.1818,0.1838,0.1867,0.1907,0.1903,0.1955,0.1955,0.1996,0.1998,0.2046,0.2052,0.2112,0.1985,0.1985,0.1985,0.1984,0,0.1756,0.1734,0.175,0.1734,0.1725,0.1732,0.1728,0.1735,0.1755,0.1762,0.1787,0.1803,0.1844,0.1878,0.1908,0.1963,0.1957,0.1998,0.201,0.2048,0.2053,0.2087,0.2022,0.1986,0.1985,0.1985,0.1985,0,0.1694,0.1703,0.1684,0.1698,0.1703,0.1694,0.1711,0.1713,0.1738,0.1751,0.1757,0.1797,0.1844,0.1887,0.1942,0.1971,0.1984,0.2037,0.2075,0.2091,0.2154,0.2084,0.1926,0.1901,0.2084,0.2084,0.2085,0,0.1648,0.1636,0.1653,0.165,0.1651,0.1655,0.1657,0.1691,0.1702,0.1747,0.1752,0.1806,0.1844,0.1934,0.2007,0.2072,0.2004,0.2143,0.2144,0.2169,0.21,0.1918,0.1896,0.2208,0.221,0.2211,0.2212,0,0.157,0.1583,0.1579,0.1588,0.1592,0.16,0.1617,0.1627,0.1671,0.1701,0.1747,0.1786,0.1892,0.1993,0.2086,0.2133,0.2076,0.2172,0.2197,0.2197,0.2,0.1982,0.2167,0.2224,0.2222,0.2222,0.2221,0.222,0.1506,0.1498,0.1512,0.1514,0.1528,0.1543,0.1544,0.1582,0.1614,0.1649,0.1719,0.1781,0.1953,0.2099,0.218,0.2324,0.2134,0.234,0.2251,0.2064,0.2036,0.2238,0.2308,0.2307,0.2306,0.2306,0.2305,0,0.1413,0.1428,0.1438,0.145,0.1455,0.1485,0.1512,0.1519,0.1554,0.1607,0.1662,0.1824,0.2003,0.2168,0.2344,0.2395,0.233,0.2397,0.2197,0.2175,0.2411,0.2424,0.2523,0.2523,0.2523,0.2523,0.2523,0.2522,0.1365,0.135,0.1376,0.1375,0.1392,0.1387,0.1397,0.142,0.1463,0.1521,0.1591,0.1671,0.1871,0.2169,0.2379,0.2403,0.2261,0.2202,0.2129,0.2387,0.2377,0.2367,0.2373,0.2459,0.2458,0.1918,0.1914,0.1911]},{"header":{"parameterUnit":"m.s-1","parameterCategory":2,"la1":30.2991,"la2":30.254,"lo1":-89.0895,"lo2":-89.0444,"dy":0.0017,"dx":0.0017,"nx":28,"ny":28,"refTime":"2023-08-19T09:00:00:Z","depth":"0","parameterNumber":3,"parameterNumberName":"V-component_of_CURRENTS"},"data":[0,0,0,0,0,0,0,0,0,0,0,0,0,0,0,0,0,0,0,0,0,0,0,0,0,0,0,0,0,0,0,0,0,0,0,0,0,0,0,0,0,0,0,0,0,0,0,0,0,0,0,0,0,0,0,0,0,0,-0.1297,-0.1296,0,-0.1273,-0.1273,-0.1273,-0.1273,-0.1273,-0.1273,-0.1273,-0.13,-0.13,-0.1301,0,0,0,0,0,0,0,0,0,0,0,0,0,-0.1337,-0.1336,-0.1297,-0.1296,-0.1296,-0.1273,-0.1273,-0.1273,-0.1273,-0.1273,-0.1273,-0.1274,-0.13,-0.13,-0.1301,0,0,0,0,0,0,0,0,0,0,0,0,0,-0.1318,-0.1336,-0.1297,-0.1292,-0.1291,-0.1273,-0.1273,-0.1273,-0.1273,-0.1273,-0.1273,-0.1274,-0.13,-0.13,-0.1301,-0.1301,0,0,-0.1304,-0.1304,0,0,0,0,0,0,0,0,-0.1319,-0.1317,-0.1293,-0.1292,-0.1291,-0.1275,-0.1297,-0.1284,-0.1273,-0.1281,-0.1273,-0.1274,-0.1295,-0.1296,-0.1293,-0.1302,-0.1303,-0.1304,-0.1304,-0.1305,-0.1305,0,0,0,0,0,0,0,-0.1321,-0.1318,-0.1289,-0.1293,-0.1292,-0.1289,-0.1287,-0.1294,-0.1289,-0.1281,-0.128,-0.1275,-0.1295,-0.1292,-0.1293,-0.1304,-0.1304,-0.1304,-0.1305,-0.1305,-0.1301,-0.13,0,0,0,0,0,0,-0.1321,-0.1319,-0.129,-0.1288,-0.1305,-0.1289,-0.1286,-0.1281,-0.1288,-0.1288,-0.1275,-0.1275,-0.129,-0.1292,-0.1294,-0.1286,-0.1304,-0.1305,-0.1306,-0.1301,-0.13,-0.13,0,0,0,0,0,0,-0.1321,-0.1318,-0.129,-0.1302,-0.1298,-0.1287,-0.1282,-0.1281,-0.1279,-0.1283,-0.1285,-0.1275,-0.1291,-0.1293,-0.1294,-0.1288,-0.1306,-0.1306,-0.1302,-0.1301,-0.13,-0.1275,0,0,0,0,0,0,-0.1323,-0.1319,-0.1317,-0.1302,-0.1297,-0.1279,-0.1281,-0.128,-0.1274,-0.1275,-0.1283,-0.1286,-0.1291,-0.1292,-0.1294,-0.1289,-0.1307,-0.1303,-0.1302,-0.13,-0.1277,-0.1273,-0.1271,0,0,0,0,0,-0.1324,-0.1321,-0.1318,-0.1314,-0.1295,-0.1279,-0.1277,-0.1271,-0.1274,-0.1271,-0.1272,-0.1285,-0.1287,-0.1292,-0.1295,-0.129,-0.1303,-0.1302,-0.1301,-0.1278,-0.1274,-0.1271,0,0,0,0,0,0,-0.1337,-0.132,-0.1316,-0.1307,-0.1294,-0.1278,-0.1275,-0.1271,-0.1269,-0.1271,-0.1279,-0.1281,-0.1278,-0.1286,-0.1293,-0.1284,-0.1297,-0.1296,-0.1279,-0.1275,-0.1272,-0.1277,-0.1308,0,0,0,0,0,-0.1339,-0.1332,-0.1314,-0.1307,-0.13,-0.1288,-0.1282,-0.1276,-0.1269,-0.1269,-0.1272,-0.1274,-0.1274,-0.1277,-0.1278,-0.1276,-0.1287,-0.1273,-0.127,-0.1268,-0.1272,-0.1278,-0.1276,-0.1295,-0.1295,-0.1295,0,0,-0.134,-0.1331,-0.1326,-0.131,-0.13,-0.1284,-0.1286,-0.1273,-0.1262,-0.1273,-0.1264,-0.1265,-0.127,-0.1263,-0.1263,-0.1271,-0.1266,-0.1266,-0.1264,-0.127,-0.1277,-0.1275,-0.1273,-0.1294,-0.1295,-0.1295,0,0,-0.1339,-0.1333,-0.1325,-0.1314,-0.1296,-0.1284,-0.128,-0.1263,-0.1259,-0.1247,-0.125,-0.1248,-0.1247,-0.1247,-0.1248,-0.1231,-0.1249,-0.123,-0.1221,-0.1226,-0.1225,-0.1224,-0.1229,-0.1229,-0.123,-0.123,-0.123,0,-0.1342,-0.133,-0.1321,-0.1309,-0.1298,-0.1283,-0.127,-0.1259,-0.1244,-0.1242,-0.1242,-0.1235,-0.1239,-0.1233,-0.1223,-0.1225,-0.1231,-0.1235,-0.1223,-0.1223,-0.1222,-0.1227,-0.1228,-0.1228,-0.1229,-0.1229,-0.1229,0,-0.1332,-0.1323,-0.1317,-0.1296,-0.1283,-0.1269,-0.1249,-0.1239,-0.1231,-0.1223,-0.1215,-0.1213,-0.1213,-0.1208,-0.1211,-0.1206,-0.1212,-0.1218,-0.1234,-0.1219,-0.1225,-0.1226,-0.1226,-0.1227,-0.1227,-0.1228,0,0,-0.1333,-0.1314,-0.1311,-0.1302,-0.1276,-0.1262,-0.1244,-0.1225,-0.1218,-0.1204,-0.1198,-0.1188,-0.1192,-0.1193,-0.1195,-0.1196,-0.1193,-0.1204,-0.1205,-0.1212,-0.1204,-0.1214,-0.1216,-0.1196,-0.1197,-0.1197,-0.1208,0,-0.1326,-0.1308,-0.1298,-0.1276,-0.1262,-0.1246,-0.123,-0.1213,-0.1202,-0.1192,-0.1189,-0.1183,-0.1185,-0.1184,-0.1185,-0.119,-0.1194,-0.1189,-0.1215,-0.1216,-0.123,-0.1217,-0.1184,-0.1192,-0.1208,-0.1208,-0.1209,0,-0.1314,-0.1305,-0.1286,-0.1267,-0.126,-0.1245,-0.1222,-0.1207,-0.1191,-0.1185,-0.1179,-0.1178,-0.1174,-0.1179,-0.1186,-0.1182,-0.1194,-0.1199,-0.1199,-0.1221,-0.1228,-0.1211,-0.1193,-0.1117,-0.121,-0.121,-0.1209,0,-0.1313,-0.1294,-0.1281,-0.1272,-0.1247,-0.124,-0.1227,-0.1207,-0.1193,-0.1183,-0.1173,-0.1173,-0.1168,-0.118,-0.119,-0.1189,-0.1201,-0.1202,-0.1223,-0.1224,-0.1208,-0.1208,-0.1124,-0.1214,-0.1214,-0.1214,-0.1214,0,-0.1304,-0.1292,-0.1282,-0.1272,-0.1254,-0.1242,-0.1224,-0.121,-0.1192,-0.117,-0.1172,-0.1155,-0.1168,-0.1174,-0.1189,-0.1207,-0.1203,-0.1222,-0.1227,-0.1197,-0.1196,-0.1141,-0.1063,-0.1215,-0.1215,-0.1214,-0.1214,0,-0.1294,-0.1288,-0.1271,-0.1256,-0.125,-0.1236,-0.1213,-0.1198,-0.1187,-0.1159,-0.1153,-0.114,-0.1141,-0.1162,-0.118,-0.1204,-0.121,-0.1234,-0.1199,-0.12,-0.1151,-0.1073,-0.1128,-0.1176,-0.1255,-0.1256,-0.1256,0,-0.1281,-0.1273,-0.1258,-0.1244,-0.1236,-0.122,-0.1202,-0.119,-0.1173,-0.1142,-0.1125,-0.1121,-0.1099,-0.1136,-0.1178,-0.1215,-0.1204,-0.1224,-0.1218,-0.1141,-0.1058,-0.1135,-0.1178,-0.1182,-0.1182,-0.1182,-0.1181,0,-0.1253,-0.1252,-0.1239,-0.1218,-0.1201,-0.1181,-0.1161,-0.1147,-0.1127,-0.1104,-0.107,-0.1052,-0.1079,-0.1082,-0.1145,-0.118,-0.1193,-0.122,-0.1142,-0.0993,-0.1068,-0.1119,-0.1181,-0.1179,-0.1179,-0.1179,-0.1179,-0.1179,-0.1223,-0.1212,-0.1198,-0.118,-0.1162,-0.1134,-0.1105,-0.1087,-0.1053,-0.0985,-0.1004,-0.0917,-0.0928,-0.0997,-0.1095,-0.1127,-0.1175,-0.1098,-0.1011,-0.1103,-0.114,-0.1203,-0.1209,-0.1209,-0.1209,-0.121,-0.121,0,-0.1168,-0.1165,-0.1154,-0.1123,-0.1099,-0.1101,-0.1064,-0.102,-0.0968,-0.089,-0.0845,-0.0691,-0.0726,-0.0783,-0.0828,-0.087,-0.1034,-0.0867,-0.0918,-0.0977,-0.101,-0.0994,-0.095,-0.095,-0.095,-0.095,-0.095,-0.095,-0.1133,-0.1109,-0.1118,-0.1068,-0.1051,-0.0988,-0.0961,-0.0896,-0.0822,-0.0642,-0.0486,-0.0392,-0.0213,-0.0335,-0.0437,-0.0532,-0.0637,-0.0682,-0.0737,-0.0637,-0.0651,-0.0666,-0.0635,-0.0517,-0.0516,-0.0817,-0.0817,-0.0817]}],[{"header":{"parameterUnit":"m.s-1","parameterCategory":2,"la1":30.2991,"la2":30.254,"lo1":-89.0895,"lo2":-89.0444,"dy":0.0017,"dx":0.0017,"nx":28,"ny":28,"refTime":"2023-08-19T09:00:00:Z","depth":"2","parameterNumber":2,"parameterNumberName":"U-component_of_CURRENTS"},"data":[0,0,0,0,0,0,0,0,0,0,0,0,0,0,0,0,0,0,0,0,0,0,0,0,0,0,0,0,0,0,0,0,0,0,0,0,0,0,0,0,0,0,0,0,0,0,0,0,0,0,0,0,0,0,0,0,0,0,0.0147,0.0148,0,0.0179,0.018,0.018,0.0166,0.0165,0.0164,0.0163,0.0169,0.017,0.0171,0,0,0,0,0,0,0,0,0,0,0,0,0,0.0096,0.0097,0.0147,0.0148,0.0148,0.0179,0.018,0.018,0.0166,0.0165,0.0164,0.0163,0.0169,0.017,0.0171,0,0,0,0,0,0,0,0,0,0,0,0,0,0.0123,0.0097,0.0147,0.0144,0.0144,0.0179,0.018,0.018,0.0166,0.0165,0.0164,0.0163,0.0169,0.017,0.0171,0.0205,0,0,0.0176,0.0176,0,0,0,0,0,0,0,0,0.0121,0.0125,0.0144,0.0144,0.0145,0.0167,0.0164,0.0187,0.0167,0.0159,0.0163,0.0162,0.0167,0.0168,0.0178,0.0206,0.0206,0.0176,0.0177,0.0177,0.0178,0,0,0,0,0,0,0,0.0119,0.0123,0.016,0.0145,0.0145,0.0149,0.0151,0.0169,0.0169,0.0159,0.0158,0.0161,0.0166,0.0177,0.0178,0.0206,0.0176,0.0177,0.0178,0.0179,0.0307,0.0309,0,0,0,0,0,0,0.0115,0.0122,0.0159,0.0161,0.0129,0.0151,0.0153,0.0161,0.017,0.017,0.0162,0.016,0.0175,0.0177,0.0178,0.0271,0.0177,0.0179,0.018,0.0304,0.0307,0.031,0,0,0,0,0,0,0.0114,0.0118,0.0158,0.0141,0.0147,0.0153,0.0162,0.0163,0.0178,0.0172,0.0171,0.0177,0.0174,0.0176,0.0222,0.0269,0.0179,0.0181,0.0301,0.0305,0.0309,0.0422,0,0,0,0,0,0,0.0112,0.0118,0.0131,0.0141,0.0147,0.0196,0.0163,0.0164,0.0181,0.0179,0.0185,0.0184,0.0173,0.022,0.0223,0.0269,0.0182,0.0298,0.0303,0.0308,0.0415,0.043,0.0442,0,0,0,0,0,0.011,0.0137,0.0131,0.0136,0.0162,0.0198,0.0203,0.0202,0.0183,0.0207,0.0217,0.0184,0.0252,0.0224,0.0227,0.0274,0.0296,0.0302,0.0307,0.0409,0.0427,0.0441,0,0,0,0,0,0,0.0129,0.0138,0.0132,0.0162,0.0184,0.0195,0.0219,0.0212,0.0239,0.0237,0.0221,0.0223,0.0282,0.0265,0.0234,0.0325,0.0267,0.0274,0.0344,0.036,0.0373,0.0402,0.0183,0,0,0,0,0,0.0137,0.0157,0.0168,0.0196,0.0207,0.0214,0.0228,0.023,0.0249,0.0258,0.0265,0.0278,0.0309,0.0322,0.0344,0.0395,0.0393,0.0426,0.044,0.0451,0.0478,0.0513,0.0532,0.0329,0.0329,0.0329,0,0,0.0153,0.0161,0.0173,0.0201,0.0216,0.0259,0.0221,0.0255,0.0301,0.0257,0.0326,0.0328,0.0335,0.0399,0.0422,0.0388,0.0509,0.0458,0.0468,0.049,0.0521,0.054,0.0558,0.0333,0.0332,0.0332,0,0,0.0198,0.0202,0.0234,0.0259,0.0286,0.03,0.0312,0.0337,0.0358,0.042,0.0405,0.0446,0.0481,0.0507,0.052,0.0621,0.0581,0.0614,0.0703,0.0737,0.0754,0.0768,0.0798,0.0814,0.0616,0.0617,0.0617,0,0.0216,0.0253,0.0253,0.0296,0.0323,0.0322,0.0372,0.0409,0.0449,0.048,0.0458,0.0542,0.0543,0.0628,0.0667,0.0654,0.0658,0.064,0.0754,0.0769,0.0782,0.0808,0.0825,0.0623,0.0622,0.0621,0.0621,0,0.0284,0.0319,0.0346,0.0396,0.0432,0.0477,0.0517,0.0562,0.0579,0.0609,0.0694,0.0709,0.0752,0.0761,0.0751,0.0848,0.0817,0.0768,0.0712,0.0809,0.083,0.0846,0.0632,0.0629,0.0627,0.0626,0,0,0.0309,0.0376,0.0386,0.0417,0.0485,0.0517,0.061,0.0684,0.0736,0.0792,0.0866,0.0939,0.0931,0.0948,0.0934,0.0972,0.1072,0.0919,0.0918,0.0947,0.1147,0.1051,0.1057,0.1034,0.1037,0.104,0.1126,0,0.036,0.0438,0.0469,0.0559,0.0601,0.0641,0.0721,0.0791,0.0844,0.092,0.0963,0.1023,0.1006,0.1017,0.1069,0.1062,0.1117,0.1053,0.1051,0.1052,0.0953,0.1074,0.0841,0.0892,0.1141,0.1143,0.1145,0,0.0416,0.0456,0.0539,0.0619,0.0642,0.07,0.0803,0.0874,0.0985,0.1024,0.1105,0.1126,0.122,0.1165,0.1256,0.1211,0.121,0.1204,0.1205,0.109,0.0984,0.0834,0.0909,0.117,0.1168,0.1166,0.1165,0,0.0415,0.0508,0.0566,0.0597,0.0693,0.0739,0.0794,0.0902,0.0957,0.1084,0.1123,0.1237,0.1267,0.1316,0.1322,0.1292,0.1394,0.1336,0.1263,0.1255,0.1046,0.1014,0.1419,0.1419,0.1419,0.1419,0.1418,0,0.0452,0.05,0.0562,0.0595,0.0659,0.0733,0.0815,0.0888,0.099,0.1057,0.1161,0.1213,0.1302,0.136,0.1372,0.1372,0.1437,0.1321,0.1286,0.1079,0.105,0.1271,0.1253,0.1422,0.1421,0.142,0.142,0,0.0445,0.0493,0.055,0.0633,0.0657,0.0698,0.0789,0.0847,0.0949,0.1036,0.1074,0.1207,0.1282,0.1359,0.1427,0.1404,0.1424,0.1402,0.1156,0.1092,0.1256,0.1243,0.1354,0.1351,0.1349,0.1348,0.1346,0,0.045,0.0477,0.0543,0.0561,0.0595,0.0657,0.07,0.0809,0.0865,0.1012,0.1045,0.116,0.1166,0.1252,0.1237,0.1255,0.1385,0.1112,0.1022,0.1303,0.1258,0.1248,0.1237,0.0796,0.079,0.0786,0.0782,0,0.0441,0.0456,0.0488,0.0518,0.0554,0.0601,0.0668,0.0697,0.0827,0.0879,0.0951,0.0955,0.0991,0.0906,0.0944,0.0925,0.1093,0.1015,0.1386,0.0839,0.0781,0.0735,0.0743,0.074,0.0744,0.0747,0.0749,0.0751,0.0411,0.0415,0.0443,0.0472,0.0506,0.0538,0.0558,0.0611,0.0653,0.0694,0.0739,0.0684,0.0648,0.0554,0.0618,0.0728,0.0756,0.0753,0.0766,0.0785,0.0696,0.0636,0.0551,0.0554,0.0557,0.0559,0.0561,0,0.0374,0.0383,0.0399,0.0427,0.0438,0.0487,0.0534,0.0513,0.0512,0.0514,0.0472,0.0305,0.0181,0.0316,0.0336,0.0352,0.0345,0.0442,0.0408,0.044,0.0471,0.037,0.0139,0.0141,0.0142,0.0143,0,0,0.0352,0.0351,0.0361,0.0358,0.038,0.0393,0.0408,0.036,0.0337,0.0241,0.0196,0.0002,0.0087,0.0048,0.0058,0.0149,0.0316,0.0144,0.0428,0.0403,0.0438,0.0541,0.0406,0,0,0,0,0]},{"header":{"parameterUnit":"m.s-1","parameterCategory":2,"la1":30.2991,"la2":30.254,"lo1":-89.0895,"lo2":-89.0444,"dy":0.0017,"dx":0.0017,"nx":28,"ny":28,"refTime":"2023-08-19T09:00:00:Z","depth":"2","parameterNumber":3,"parameterNumberName":"V-component_of_CURRENTS"},"data":[0,0,0,0,0,0,0,0,0,0,0,0,0,0,0,0,0,0,0,0,0,0,0,0,0,0,0,0,0,0,0,0,0,0,0,0,0,0,0,0,0,0,0,0,0,0,0,0,0,0,0,0,0,0,0,0,0,0,0.0667,0.0667,0,0.0612,0.0611,0.0611,0.0557,0.0556,0.0556,0.0555,0.0447,0.0445,0.0443,0,0,0,0,0,0,0,0,0,0,0,0,0,0.0704,0.0704,0.0667,0.0667,0.0666,0.0612,0.0611,0.0611,0.0557,0.0556,0.0555,0.0555,0.0448,0.0445,0.0443,0,0,0,0,0,0,0,0,0,0,0,0,0,0.0673,0.0704,0.0667,0.0633,0.0629,0.0612,0.0611,0.061,0.0557,0.0556,0.0555,0.0554,0.0449,0.0446,0.0442,0.0443,0,0,0.0432,0.0431,0,0,0,0,0,0,0,0,0.0675,0.0671,0.0638,0.0635,0.0631,0.059,0.0585,0.0552,0.0558,0.0585,0.0555,0.0554,0.0491,0.0484,0.0477,0.0438,0.0433,0.0432,0.043,0.0428,0.0428,0,0,0,0,0,0,0,0.0677,0.0673,0.0646,0.0638,0.0633,0.0612,0.0607,0.0578,0.0544,0.0582,0.0578,0.0572,0.0488,0.048,0.0474,0.0432,0.0432,0.0429,0.0427,0.0426,0.0322,0.0322,0,0,0,0,0,0,0.0686,0.0676,0.0647,0.0644,0.065,0.0612,0.0606,0.0604,0.0545,0.0535,0.0573,0.057,0.0486,0.0478,0.047,0.0436,0.0428,0.0425,0.0423,0.0323,0.0322,0.0321,0,0,0,0,0,0,0.0687,0.0684,0.0649,0.0658,0.0652,0.0613,0.0611,0.0604,0.0587,0.0538,0.0527,0.0562,0.0485,0.0474,0.0436,0.0433,0.0424,0.0421,0.0324,0.0323,0.0322,0.0389,0,0,0,0,0,0,0.0688,0.0685,0.0687,0.0659,0.0652,0.0646,0.0612,0.0604,0.0585,0.058,0.0526,0.0515,0.0484,0.0441,0.0433,0.0428,0.0418,0.0325,0.0323,0.0322,0.0388,0.039,0.0392,0,0,0,0,0,0.069,0.0702,0.0687,0.0684,0.0656,0.0646,0.0641,0.0609,0.0586,0.0588,0.0541,0.0516,0.0425,0.0439,0.0429,0.0423,0.0326,0.0324,0.0322,0.0386,0.039,0.0392,0,0,0,0,0,0,0.0727,0.0697,0.068,0.0684,0.0668,0.0637,0.0634,0.0611,0.0578,0.0567,0.0515,0.0502,0.0467,0.0432,0.0448,0.0385,0.0368,0.0364,0.042,0.0423,0.0425,0.0463,0.0416,0,0,0,0,0,0.0735,0.0731,0.0703,0.0708,0.0699,0.0665,0.0655,0.0636,0.0603,0.0587,0.0548,0.0497,0.0455,0.0429,0.0393,0.0364,0.0339,0.0348,0.0351,0.0353,0.0375,0.0312,0.0312,0.0316,0.0316,0.0316,0,0,0.0753,0.0734,0.0733,0.0715,0.0695,0.0699,0.0657,0.0648,0.0646,0.0581,0.0562,0.0511,0.045,0.0417,0.0397,0.0386,0.034,0.0351,0.0354,0.0374,0.031,0.031,0.031,0.0315,0.0315,0.0315,0,0,0.0793,0.0767,0.0778,0.0767,0.0743,0.0723,0.0721,0.0689,0.0668,0.0648,0.0591,0.0539,0.0486,0.0436,0.0404,0.0396,0.036,0.0375,0.0415,0.0354,0.0354,0.0353,0.0338,0.0335,0.037,0.0371,0.0371,0,0.0812,0.0824,0.0783,0.0793,0.0791,0.0737,0.0758,0.073,0.0691,0.0679,0.0651,0.0555,0.0497,0.0447,0.0438,0.0404,0.0379,0.0414,0.036,0.0358,0.0357,0.0341,0.0337,0.0374,0.0373,0.0373,0.0373,0,0.0861,0.087,0.0876,0.0867,0.0861,0.0868,0.083,0.0815,0.0779,0.075,0.07,0.0617,0.0561,0.0521,0.0479,0.0432,0.0423,0.0377,0.0362,0.0361,0.0344,0.0339,0.0378,0.0377,0.0376,0.0375,0,0,0.0899,0.091,0.091,0.0925,0.0902,0.0904,0.0899,0.0882,0.0881,0.0818,0.081,0.0709,0.0659,0.0618,0.0541,0.048,0.044,0.0431,0.0426,0.0435,0.0341,0.0401,0.0401,0.0381,0.038,0.038,0.0341,0,0.0948,0.0992,0.0981,0.1022,0.104,0.1001,0.1007,0.0981,0.0943,0.092,0.0817,0.0775,0.0694,0.0661,0.0588,0.0477,0.0428,0.0458,0.0324,0.0322,0.0389,0.0397,0.0348,0.0315,0.0336,0.0335,0.0334,0,0.0993,0.1017,0.1069,0.1102,0.1107,0.1118,0.1116,0.1118,0.1065,0.1036,0.0971,0.0897,0.08,0.0725,0.0557,0.0581,0.0479,0.0391,0.0386,0.042,0.0373,0.0312,0.0305,0.0326,0.0327,0.0327,0.0328,0,0.103,0.1076,0.1122,0.113,0.1154,0.1167,0.1174,0.1147,0.1149,0.1102,0.1089,0.0978,0.0906,0.0767,0.0591,0.0571,0.0418,0.0359,0.0326,0.0329,0.0254,0.0254,0.0253,0.0253,0.0253,0.0253,0.0253,0,0.1078,0.1113,0.1141,0.1162,0.1212,0.1215,0.1253,0.1241,0.1228,0.1225,0.1143,0.1105,0.0906,0.0792,0.0638,0.0489,0.0451,0.0357,0.0323,0.0279,0.0282,0.0256,0.0257,0.0252,0.0252,0.0252,0.0252,0,0.1105,0.1128,0.1178,0.1216,0.1227,0.1257,0.1294,0.132,0.1306,0.1296,0.1282,0.1186,0.1046,0.0873,0.065,0.0554,0.0401,0.0353,0.0351,0.032,0.0347,0.0352,0.0328,0.033,0.0332,0.0333,0.0334,0,0.1124,0.1155,0.1203,0.1228,0.1243,0.1289,0.132,0.134,0.1361,0.1333,0.1326,0.1219,0.1127,0.0888,0.0696,0.0499,0.043,0.0354,0.0307,0.0386,0.0354,0.0356,0.0359,0.0225,0.0225,0.0225,0.0225,0,0.1157,0.1167,0.1201,0.1248,0.1285,0.1341,0.1381,0.1412,0.1426,0.142,0.1387,0.1322,0.1117,0.0878,0.066,0.0536,0.0393,0.0356,0.0394,0.0241,0.0292,0.0261,0.0264,0.0225,0.0225,0.0225,0.0225,0.0225,0.116,0.1186,0.122,0.1262,0.1305,0.136,0.14,0.145,0.1482,0.1426,0.1366,0.1173,0.0916,0.0568,0.0471,0.0424,0.0438,0.0319,0.0316,0.0313,0.0336,0.0389,0.0347,0.0348,0.0348,0.0349,0.0349,0,0.1154,0.1177,0.1232,0.128,0.1321,0.1337,0.1412,0.1443,0.1472,0.1356,0.1261,0.0815,0.0595,0.0409,0.0349,0.0313,0.0293,0.0274,0.0198,0.0199,0.0199,0.0214,0.0193,0.0193,0.0192,0.0192,0,0,0.115,0.118,0.1212,0.1263,0.1291,0.1325,0.1355,0.1402,0.1345,0.1181,0.0955,0.0646,0.0453,0.026,0.0216,0.0245,0.0254,0.0257,0.0386,0.0309,0.031,0.0228,0.0254,0,0,0,0,0]}],[{"header":{"parameterUnit":"m.s-1","parameterCategory":2,"la1":30.2991,"la2":30.254,"lo1":-89.0895,"lo2":-89.0444,"dy":0.0017,"dx":0.0017,"nx":28,"ny":28,"refTime":"2023-08-19T09:00:00:Z","depth":"4","parameterNumber":2,"parameterNumberName":"U-component_of_CURRENTS"},"data":[0,0,0,0,0,0,0,0,0,0,0,0,0,0,0,0,0,0,0,0,0,0,0,0,0,0,0,0,0,0,0,0,0,0,0,0,0,0,0,0,0,0,0,0,0,0,0,0,0,0,0,0,0,0,0,0,0,0,-0.0474,-0.0474,0,-0.0485,-0.0485,-0.0486,-0.0486,-0.0486,-0.0486,-0.0486,-0.0568,-0.057,-0.0573,0,0,0,0,0,0,0,0,0,0,0,0,0,-0.0439,-0.044,-0.0474,-0.0474,-0.0474,-0.0485,-0.0485,-0.0486,-0.0486,-0.0486,-0.0486,-0.0485,-0.0567,-0.057,-0.0573,0,0,0,0,0,0,0,0,0,0,0,0,0,-0.0454,-0.044,-0.0474,-0.0475,-0.0475,-0.0485,-0.0485,-0.0486,-0.0486,-0.0486,-0.0486,-0.0485,-0.0566,-0.057,-0.0573,-0.0602,0,0,-0.0585,-0.0586,0,0,0,0,0,0,0,0,-0.0453,-0.0455,-0.0475,-0.0475,-0.0475,-0.0483,-0.0503,-0.0528,-0.0486,-0.0483,-0.0486,-0.0485,-0.0546,-0.0551,-0.0554,-0.0606,-0.061,-0.0585,-0.0587,-0.0589,-0.059,0,0,0,0,0,0,0,-0.0452,-0.0455,-0.048,-0.0475,-0.0475,-0.047,-0.0472,-0.0508,-0.0518,-0.0483,-0.0483,-0.0483,-0.0547,-0.0551,-0.0557,-0.0611,-0.0585,-0.0588,-0.059,-0.0592,-0.0709,-0.071,0,0,0,0,0,0,-0.045,-0.0454,-0.0479,-0.048,-0.0462,-0.0471,-0.0473,-0.0482,-0.0517,-0.0521,-0.0483,-0.0483,-0.0545,-0.0552,-0.056,-0.0599,-0.0589,-0.0592,-0.0594,-0.0708,-0.0709,-0.071,0,0,0,0,0,0,-0.0449,-0.0452,-0.0479,-0.0465,-0.0468,-0.0472,-0.0481,-0.0482,-0.0485,-0.0515,-0.0521,-0.0485,-0.0545,-0.0555,-0.0594,-0.0602,-0.0594,-0.0597,-0.0707,-0.0708,-0.071,-0.0677,0,0,0,0,0,0,-0.0448,-0.0452,-0.0462,-0.0466,-0.0469,-0.0483,-0.0482,-0.0482,-0.0485,-0.0485,-0.0519,-0.0526,-0.0545,-0.0588,-0.0597,-0.0607,-0.06,-0.0706,-0.0708,-0.0709,-0.0677,-0.0677,-0.0678,0,0,0,0,0,-0.0447,-0.046,-0.0463,-0.0466,-0.0482,-0.0483,-0.0485,-0.0486,-0.0485,-0.0488,-0.0514,-0.0525,-0.0606,-0.0592,-0.0602,-0.0614,-0.0705,-0.0707,-0.0709,-0.0677,-0.0677,-0.0678,0,0,0,0,0,0,-0.0452,-0.0461,-0.0465,-0.048,-0.0481,-0.0483,-0.0486,-0.0487,-0.0507,-0.0509,-0.0537,-0.0547,-0.0585,-0.0609,-0.0592,-0.0655,-0.0658,-0.0662,-0.063,-0.0631,-0.0631,-0.0619,-0.0603,0,0,0,0,0,-0.0458,-0.047,-0.0472,-0.0486,-0.0484,-0.0486,-0.0488,-0.0486,-0.0501,-0.0508,-0.0533,-0.0567,-0.0603,-0.0623,-0.0657,-0.0692,-0.07,-0.0708,-0.0708,-0.0708,-0.0707,-0.0732,-0.0734,-0.0717,-0.0717,-0.0717,0,0,-0.0466,-0.047,-0.048,-0.0487,-0.0488,-0.0487,-0.0486,-0.0486,-0.0493,-0.0518,-0.0543,-0.0571,-0.0614,-0.0649,-0.0669,-0.0669,-0.0714,-0.0711,-0.071,-0.071,-0.0735,-0.0736,-0.0737,-0.0719,-0.0719,-0.0718,0,0,-0.0474,-0.0488,-0.0493,-0.0491,-0.0488,-0.0491,-0.049,-0.0492,-0.05,-0.0524,-0.0547,-0.0582,-0.0629,-0.0662,-0.0685,-0.0713,-0.0716,-0.0722,-0.0712,-0.0736,-0.0737,-0.0738,-0.073,-0.0731,-0.0721,-0.072,-0.072,0,-0.0486,-0.0487,-0.0494,-0.0489,-0.0489,-0.0491,-0.0488,-0.05,-0.0517,-0.0531,-0.053,-0.0605,-0.0638,-0.0689,-0.0691,-0.0713,-0.071,-0.0702,-0.0734,-0.0735,-0.0737,-0.0729,-0.073,-0.0719,-0.0719,-0.0719,-0.072,0,-0.0485,-0.0487,-0.0486,-0.0486,-0.049,-0.0486,-0.0496,-0.0508,-0.0517,-0.053,-0.0574,-0.0614,-0.0654,-0.0674,-0.0688,-0.0722,-0.0709,-0.0728,-0.0725,-0.0736,-0.0728,-0.0729,-0.0717,-0.0718,-0.0718,-0.0718,0,0,-0.0509,-0.0491,-0.049,-0.0481,-0.0484,-0.0483,-0.0503,-0.052,-0.0533,-0.0558,-0.0581,-0.0638,-0.0646,-0.0674,-0.0699,-0.0721,-0.0723,-0.0718,-0.072,-0.0696,-0.0743,-0.0679,-0.0674,-0.0737,-0.0738,-0.0738,-0.0724,0,-0.0504,-0.0487,-0.0486,-0.0478,-0.0468,-0.048,-0.0497,-0.0518,-0.0539,-0.0565,-0.0609,-0.0637,-0.065,-0.0658,-0.0685,-0.0722,-0.0729,-0.0723,-0.075,-0.075,-0.068,-0.0675,-0.074,-0.0725,-0.0726,-0.0726,-0.0726,0,-0.05,-0.0485,-0.0466,-0.0462,-0.0461,-0.0455,-0.0477,-0.0492,-0.0536,-0.0554,-0.0587,-0.0616,-0.0656,-0.066,-0.0713,-0.0701,-0.0711,-0.0735,-0.0735,-0.0689,-0.069,-0.072,-0.0729,-0.0729,-0.0729,-0.0729,-0.0728,0,-0.0495,-0.0477,-0.0457,-0.0452,-0.0448,-0.0442,-0.0444,-0.0479,-0.0499,-0.0532,-0.0551,-0.0601,-0.0621,-0.0655,-0.0701,-0.0696,-0.0753,-0.0758,-0.0708,-0.0703,-0.0779,-0.0778,-0.0782,-0.0782,-0.0782,-0.0782,-0.0783,0,-0.0481,-0.0475,-0.044,-0.0425,-0.0405,-0.0412,-0.0409,-0.0425,-0.0459,-0.0495,-0.0527,-0.0554,-0.0619,-0.0666,-0.0695,-0.0703,-0.0746,-0.0697,-0.0698,-0.0763,-0.0762,-0.0778,-0.0778,-0.0782,-0.0782,-0.0782,-0.0782,0,-0.0477,-0.0458,-0.0437,-0.0409,-0.0393,-0.0374,-0.0369,-0.0384,-0.0409,-0.0455,-0.0461,-0.0516,-0.0539,-0.0608,-0.0666,-0.0684,-0.0711,-0.0704,-0.0753,-0.0759,-0.0636,-0.0635,-0.062,-0.0618,-0.0616,-0.0614,-0.0613,0,-0.0472,-0.0452,-0.0413,-0.0384,-0.0357,-0.0329,-0.0324,-0.0346,-0.0375,-0.0435,-0.0464,-0.0482,-0.052,-0.0541,-0.06,-0.0632,-0.064,-0.0659,-0.0652,-0.0619,-0.0621,-0.0623,-0.0624,-0.061,-0.0609,-0.0609,-0.0608,0,-0.0462,-0.0449,-0.0429,-0.0362,-0.0327,-0.0315,-0.0308,-0.031,-0.0368,-0.0413,-0.0439,-0.0452,-0.047,-0.0489,-0.0519,-0.0553,-0.0654,-0.0638,-0.0642,-0.0636,-0.0606,-0.0611,-0.0614,-0.0601,-0.0602,-0.0603,-0.0603,0,-0.0463,-0.0446,-0.0407,-0.035,-0.0308,-0.0284,-0.0285,-0.0303,-0.0322,-0.0398,-0.0401,-0.0425,-0.046,-0.0446,-0.0485,-0.0497,-0.0482,-0.0507,-0.0518,-0.0526,-0.0505,-0.0454,-0.0394,0,0,0,0,0,-0.0447,-0.0433,-0.0394,-0.0325,-0.0283,-0.0265,-0.0279,-0.0297,-0.0347,-0.0359,-0.0378,-0.039,-0.0395,-0.0395,-0.0382,-0.0428,-0.0484,-0.0416,-0.0518,-0.0563,-0.0571,-0.0558,0,0,0,0,0,0,-0.0438,-0.0417,-0.0402,-0.0317,-0.026,-0.0232,-0.0234,-0.0275,-0.0279,-0.0327,-0.0311,-0.038,-0.0364,-0.0386,-0.0373,-0.0381,-0.0444,-0.0439,-0.0438,-0.0559,-0.0566,-0.0572,-0.0561,0,0,0,0,0]},{"header":{"parameterUnit":"m.s-1","parameterCategory":2,"la1":30.2991,"la2":30.254,"lo1":-89.0895,"lo2":-89.0444,"dy":0.0017,"dx":0.0017,"nx":28,"ny":28,"refTime":"2023-08-19T09:00:00:Z","depth":"4","parameterNumber":3,"parameterNumberName":"V-component_of_CURRENTS"},"data":[0,0,0,0,0,0,0,0,0,0,0,0,0,0,0,0,0,0,0,0,0,0,0,0,0,0,0,0,0,0,0,0,0,0,0,0,0,0,0,0,0,0,0,0,0,0,0,0,0,0,0,0,0,0,0,0,0,0,0.0042,0.0042,0,0.0022,0.0022,0.0022,0.0035,0.0036,0.0036,0.0037,0.0068,0.0068,0.0069,0,0,0,0,0,0,0,0,0,0,0,0,0,0.0067,0.0067,0.0042,0.0042,0.0041,0.0022,0.0022,0.0022,0.0035,0.0036,0.0036,0.0037,0.0068,0.0068,0.0069,0,0,0,0,0,0,0,0,0,0,0,0,0,0.0054,0.0066,0.0042,0.0044,0.0044,0.0022,0.0022,0.0022,0.0035,0.0036,0.0037,0.0037,0.0068,0.0068,0.0069,0.0059,0,0,0.0071,0.0071,0,0,0,0,0,0,0,0,0.0055,0.0053,0.0044,0.0044,0.0044,0.0031,0.0042,0.0036,0.0035,0.004,0.0037,0.0038,0.0059,0.006,0.0056,0.006,0.0061,0.0071,0.0071,0.0071,0.0071,0,0,0,0,0,0,0,0.0056,0.0054,0.0036,0.0044,0.0044,0.0038,0.0037,0.0041,0.0048,0.004,0.004,0.0035,0.0059,0.0056,0.0057,0.0062,0.0071,0.0071,0.0072,0.0072,0.0061,0.006,0,0,0,0,0,0,0.0055,0.0055,0.0036,0.0035,0.0049,0.0037,0.0036,0.0036,0.0047,0.0048,0.0035,0.0036,0.0054,0.0056,0.0058,0.0045,0.0071,0.0072,0.0072,0.0062,0.0061,0.006,0,0,0,0,0,0,0.0056,0.0054,0.0037,0.0043,0.004,0.0036,0.0035,0.0035,0.0029,0.0042,0.0045,0.0029,0.0055,0.0058,0.0052,0.0047,0.0072,0.0073,0.0062,0.0061,0.006,0.0021,0,0,0,0,0,0,0.0057,0.0054,0.0052,0.0043,0.004,0.0016,0.0034,0.0034,0.0024,0.0026,0.0038,0.0042,0.0056,0.0051,0.0053,0.0048,0.0073,0.0063,0.0062,0.0061,0.0023,0.0019,0.0015,0,0,0,0,0,0.0058,0.0048,0.0052,0.005,0.0038,0.0014,0.0012,0.0012,0.0023,0.0012,0.0021,0.0041,0.0045,0.0051,0.0053,0.0049,0.0064,0.0062,0.0061,0.0025,0.002,0.0015,0,0,0,0,0,0,0.0054,0.0048,0.0052,0.0041,0.0026,0.0016,0.0004,0.0007,0.0004,0.0009,0.0028,0.0031,0.0026,0.0039,0.0044,0.0042,0.006,0.0059,0.0032,0.0027,0.0023,0.002,0.0074,0,0,0,0,0,0.0053,0.0047,0.0036,0.0025,0.0016,0.001,0.0001,0.0001,-0.0003,-0.0003,0.0006,0.0016,0.0021,0.0025,0.0029,0.0024,0.004,0.0024,0.002,0.0017,0.0015,0.0028,0.0025,0.0055,0.0055,0.0055,0,0,0.0049,0.0043,0.004,0.0024,0.0014,-0.001,0.0007,-0.0012,-0.0029,0.0001,-0.0015,-0.0,0.0015,0.0009,0.0009,0.002,0.0015,0.0015,0.0012,0.0013,0.0026,0.0023,0.0021,0.0054,0.0055,0.0055,0,0,0.0027,0.003,0.0014,-0.0002,-0.0022,-0.0028,-0.0035,-0.0047,-0.0049,-0.0063,-0.0044,-0.0037,-0.0031,-0.0023,-0.0017,-0.0042,-0.0009,-0.0034,-0.0053,-0.0041,-0.0043,-0.0045,-0.0032,-0.0032,-0.0032,-0.0032,-0.0033,0,0.0022,0.0001,0.0003,-0.0024,-0.0041,-0.0038,-0.0067,-0.0074,-0.0085,-0.0087,-0.0073,-0.0063,-0.0048,-0.0053,-0.0056,-0.0051,-0.0034,-0.0035,-0.0046,-0.0047,-0.0049,-0.0034,-0.0034,-0.0035,-0.0034,-0.0034,-0.0034,0,-0.0016,-0.0035,-0.005,-0.0078,-0.0097,-0.0122,-0.0133,-0.0143,-0.0138,-0.0138,-0.014,-0.0119,-0.0107,-0.0102,-0.0083,-0.0084,-0.0066,-0.0055,-0.0033,-0.0054,-0.0038,-0.0037,-0.0038,-0.0037,-0.0036,-0.0036,0,0,-0.002,-0.0066,-0.0071,-0.0095,-0.0126,-0.0146,-0.0173,-0.0195,-0.0206,-0.02,-0.0211,-0.0194,-0.0165,-0.0156,-0.013,-0.0117,-0.0108,-0.0085,-0.0083,-0.0071,-0.0076,-0.0112,-0.0114,-0.0092,-0.0092,-0.0092,-0.0062,0,-0.0052,-0.0106,-0.012,-0.0174,-0.0205,-0.0212,-0.0237,-0.0252,-0.0251,-0.0259,-0.0233,-0.0227,-0.0192,-0.0174,-0.0158,-0.0123,-0.0106,-0.0117,-0.0058,-0.0057,-0.0085,-0.0114,-0.0092,-0.0061,-0.0061,-0.0061,-0.0061,0,-0.0084,-0.0118,-0.017,-0.0221,-0.0234,-0.0256,-0.0287,-0.0307,-0.0313,-0.0308,-0.0293,-0.027,-0.0249,-0.0212,-0.0164,-0.0168,-0.0121,-0.0093,-0.0091,-0.011,-0.0091,-0.0035,-0.0058,-0.0059,-0.0059,-0.0059,-0.0059,0,-0.009,-0.0153,-0.0193,-0.0211,-0.0264,-0.0278,-0.0296,-0.0313,-0.033,-0.0324,-0.0328,-0.0303,-0.0282,-0.0234,-0.017,-0.016,-0.0119,-0.0099,-0.0089,-0.0091,-0.0047,-0.0045,-0.0061,-0.0061,-0.0061,-0.0061,-0.0061,0,-0.0117,-0.0154,-0.0193,-0.0217,-0.0256,-0.0283,-0.0313,-0.0324,-0.0342,-0.0363,-0.0338,-0.0334,-0.0282,-0.0253,-0.019,-0.0147,-0.0132,-0.0101,-0.0091,-0.0065,-0.0065,-0.0046,-0.0045,-0.006,-0.006,-0.006,-0.0061,0,-0.0125,-0.0151,-0.0202,-0.025,-0.0259,-0.0281,-0.032,-0.0349,-0.0352,-0.0377,-0.0374,-0.0356,-0.0326,-0.0287,-0.0215,-0.0178,-0.0128,-0.0108,-0.0091,-0.0079,-0.0099,-0.01,-0.0104,-0.0105,-0.0106,-0.0107,-0.0108,0,-0.0138,-0.0161,-0.0213,-0.0231,-0.0249,-0.0281,-0.031,-0.034,-0.0363,-0.0383,-0.0393,-0.0382,-0.0367,-0.0296,-0.0246,-0.0176,-0.0153,-0.0122,-0.0107,-0.0117,-0.0106,-0.0106,-0.0106,-0.0109,-0.011,-0.011,-0.011,0,-0.0167,-0.0176,-0.0216,-0.0237,-0.0267,-0.0325,-0.0355,-0.0361,-0.0398,-0.0415,-0.0405,-0.0381,-0.0363,-0.0306,-0.0269,-0.0201,-0.0147,-0.0131,-0.0128,-0.0114,-0.0123,-0.0112,-0.011,-0.0114,-0.0113,-0.0113,-0.0113,0,-0.0185,-0.0209,-0.0236,-0.025,-0.0292,-0.034,-0.0363,-0.0388,-0.0412,-0.0422,-0.041,-0.0388,-0.0374,-0.0318,-0.0268,-0.024,-0.0219,-0.0178,-0.0172,-0.0168,-0.0202,-0.0224,-0.0245,0,0,0,0,0,-0.0197,-0.0216,-0.0245,-0.0281,-0.0317,-0.0342,-0.0387,-0.0409,-0.0421,-0.0422,-0.0419,-0.0399,-0.0354,-0.0315,-0.0294,-0.0285,-0.0216,-0.0258,-0.0166,-0.0132,-0.0128,-0.0162,0,0,0,0,0,0,-0.0216,-0.0242,-0.025,-0.0287,-0.0306,-0.0375,-0.04,-0.0426,-0.041,-0.0406,-0.0374,-0.0382,-0.033,-0.0372,-0.029,-0.0283,-0.0217,-0.0242,-0.0241,-0.0134,-0.0131,-0.0128,-0.0161,0,0,0,0,0]}]]